Regional Weather Roundup
Issued by NWS

Home | Current Version | Previous Version | Graphics & Text | Print | Product List | Glossary On
Versions: 1 2 3 4 5 6 7 8 9 10 11 12 13 14 15 16 17 18 19 20 21 22 23 24 25 26 27 28 29 30 31 32 33 34 35 36 37 38 39 40 41 42 43 44 45 46 47 48 49 50
000
ASUS43 KFSD 300002
RWRSD

WEATHER ROUNDUP FOR SOUTH DAKOTA
NATIONAL WEATHER SERVICE SIOUX FALLS SD
700 PM CDT FRI AUG 29 2014

NOTE: "FAIR" INDICATES FEW OR NO CLOUDS BELOW 12,000 FEET WITH NO
SIGNIFICANT WEATHER AND/OR OBSTRUCTIONS TO VISIBILITY.


SDZ001>005-009-010-012>017-300100-
NORTHWEST AND NORTH CENTRAL SOUTH DAKOTA

CITY           SKY/WX    TMP DP  RH WIND       PRES   REMARKS
BUFFALO          N/A     72  50  45 N10       29.93S
FAITH            N/A     71  56  58 N15       29.95S
MOBRIDGE       PTSUNNY   71  60  68 N13G21    29.88S
$$

SDZ012>016-024>037-041>051-057-063-072>074-300100-
SOUTHWEST AND SOUTH CENTRAL SOUTH DAKOTA

CITY           SKY/WX    TMP DP  RH WIND       PRES   REMARKS
RAPID CTY ARPT SUNNY     75  54  47 NE15      29.98R
PIERRE         PTSUNNY   73  59  61 NW15      29.87R
CUSTER         MOSUNNY   66  51  58 SE5       30.10S
ELLSWORTH AFB  PTSUNNY   78  54  43 N13G23    29.98
PHILIP         SUNNY     76  58  53 N12       29.93S
PINE RIDGE     MOSUNNY   73  53  49 NE6       29.99F
WINNER         FAIR      77  57  50 NW15      29.87R
$$

SDZ004>011-016>023-039-040-300100-
NORTHEAST SOUTH DAKOTA

CITY           SKY/WX    TMP DP  RH WIND       PRES   REMARKS
ABERDEEN       MOSUNNY   72  64  76 N15       29.82R
WATERTOWN      PTSUNNY   74  63  68 N8        29.80R
SISSETON         N/A     76  67  73 N6        29.76S
$$

SDZ017-020-022-023-036>040-048>070-300100-
SOUTHEAST SOUTH DAKOTA

CITY           SKY/WX    TMP DP  RH WIND       PRES   REMARKS
SIOUX FALLS    CLOUDY    69  66  90 CALM      29.79R
HURON          PTSUNNY   77  65  66 N9        29.80R
CHAMBERLAIN    PTSUNNY   79  55  44 N15G25    29.84R
MITCHELL       PTSUNNY   71  62  73 NW13      29.81R
YANKTON        CLOUDY    68  64  88 W5        29.78R
$$

ABBREVIATIONS USED IN REMARKS
   TC - TEMPERATURE IN CELSIUS
  WCI - WIND CHILL INDEX
   HX - HEAT INDEX
  VSB - VISIBILITY



USA.gov is the U.S. government's official web portal to all federal, state and local government web resources and services.